Simultaneous Nadir Overpasses (SNOs) Predictions

Prediction of SNOs between NOAA-19 and NPP Satellite Orbit:

Table of predicted SNOs for the next 14.0 days since TLE Epoch: 7/2/2016
Index Date (NOAA-19) Time (NOAA-19) Lat,Lon (NOAA-19) SZA (NOAA-19 ) Date (NPP) Time (NPP) Lat,Lon (NPP) SZA (NPP ) Distance(km) Time Diff (sec)
1 07/03/2016 13:03:35 80.99, -69.02 62.03 07/03/2016 13:04:40 81.00, -69.15 62.02 2.57 65
2 07/03/2016 13:54:30 -80.99, 98.53 118.00 07/03/2016 13:55:24 -80.99, 98.49 118.03 0.89 54
3 07/03/2016 14:45:36 80.99, -94.14 61.99 07/03/2016 14:46:09 80.99, -94.20 61.98 1.32 33
4 07/03/2016 15:36:32 -80.99, 73.03 118.00 07/03/2016 15:36:54 -80.99, 73.07 118.02 0.77 22
5 07/03/2016 16:27:38 80.99,-119.63 62.00 07/03/2016 16:27:39 80.99,-119.62 61.99 0.54 1
6 07/03/2016
